Regional Weather Roundup
Issued by NWS

Home | Current Version | Previous Version | Graphics & Text | Print | Product List | Glossary On
Versions: 1 2 3 4 5 6 7 8 9 10 11 12 13 14 15 16 17 18 19 20 21 22 23 24 25 26 27 28 29 30 31 32 33 34 35 36 37 38 39 40 41 42 43 44 45 46 47 48 49 50
871
ASUS44 KJAN 310710
RWRMS

MISSISSIPPI HOURLY WEATHER ROUNDUP
NATIONAL WEATHER SERVICE JACKSON MS
200 AM CDT TUE MAR 31 2015

NOTE: "FAIR: INDICATES FEW OR NO CLOUDS BELOW 12,000 FEET WITH NO
SIGNIFICANT WEATHER AND/OR OBSTRUCTIONS TO VISIBILITY.

MSZ001>002-007>008-010>013-018>021-025>028-034>036-310800-
NORTHWEST MISSISSIPPI

CITY           SKY/WX    TMP DP  RH WIND       PRES   REMARKS
CLARKSDALE       N/A     57  54  88 S5        30.05F
GREENWOOD      CLEAR     55  50  83 CALM      30.06F
GREENVILLE     NOT AVBL
OLIVE BRANCH   CLEAR     52  46  82 S5        30.05F
OXFORD         FAIR      48  46  93 CALM      30.07F
TUNICA         SUNNY     54  50  87 CALM      30.05F
$$

MSZ003>006-009-014>017-022>024-029>033-037>039-310800-
NORTHEAST MISSISSIPPI

CITY           SKY/WX    TMP DP  RH WIND       PRES   REMARKS
COLUMBUS AFB   CLEAR     50  49  96 NE2       30.07F
CORINTH        FAIR      46  45  93 SE3       30.05F
GOLDN TRIANGLE CLEAR     54  48  82 CALM      30.06F
STARKVILLE     FAIR      50  50 100 CALM      30.07F
TUPELO         CLEAR     50  47  89 CALM      30.07F
$$

MSZ040-058-310800-
CENTRAL MISSISSIPPI

CITY           SKY/WX    TMP DP  RH WIND       PRES   REMARKS
JACKSON INTL   CLEAR     61  57  87 CALM      30.09F
JACKSON HAWKNS CLEAR     64  57  78 SW5       30.09F
MERIDIAN KEY   CLEAR     55  54  96 SW3       30.09F
MERIDIAN NAS   NOT AVBL
RAYMOND        FAIR      57  52  82 MISG      30.09S HAZE
VICKSBURG      CLEAR     66  57  72 SW6       30.08F
$$

MSZ059>079-310800-
SOUTH MISSISSIPPI

CITY           SKY/WX    TMP DP  RH WIND       PRES   REMARKS
BROOKHAVEN       N/A     63  59  88 CALM      30.12F
HATTIESBURG    CLEAR     67  60  78 SW6       30.12F
MCCOMB         CLEAR     63  59  87 SW3       30.12F
NATCHEZ        CLEAR     64  57  77 S5        30.11S
PINE BELT      CLEAR     57  54  88 CALM      30.12S
$$

MSZ080>082-310800-
COASTAL MISSISSIPPI

CITY           SKY/WX    TMP DP  RH WIND       PRES   REMARKS
BILOXI         CLEAR     68  65  90 W6        30.12F
PASCAGOULA     CLEAR     66  64  93 SW3       30.12F
GULFPORT       CLEAR     66  63  90 SW3       30.12F
$$



USA.gov is the U.S. government's official web portal to all federal, state and local government web resources and services.